EW9688 Weather Reports


time (UTC)temp
C
wind
direction
speed
KPH
gust
KPH
rain 1hr
cm
rain 24hr
cm
rain mn
cm
humidity
%
barometer
mb
20260505130220 0 35 6.4 8.0 0.00 0.53 0.10 94 1014.4
20260505124221 0 33 4.8 9.7 0.00 0.53 0.10 94 1014.1
20260505123221 0 35 6.4 9.7 0.00 0.53 0.10 94 1014.0
20260505122221 0 50 4.8 9.7 0.00 0.53 0.10 94 1014.1
20260505121221 0 21 6.4 9.7 0.00 0.53 0.10 94 1014.0
20260505120221 0 36 6.4 9.7 0.03 0.53 0.10 94 1014.0
20260505115221 0 56 3.2 6.4 0.03 0.53 0.10 94 1013.9
20260505114226 0 39 6.4 11.3 0.03 0.53 0.10 94 1013.7
20260505113241 1 87 4.8 8.0 0.03 0.53 0.10 93 1013.9
20260505112222 1 71 4.8 9.7 0.03 0.53 0.08 93 1013.7
20260505111219 1 10 12.9 24.1 0.05 0.53 0.08 93 1013.5
20260505110216 2 281 11.3 17.7 0.03 0.51 0.08 93 1013.4
20260505102220 2 19 9.7 22.5 0.03 0.51 0.05 93 1012.9
20260505101237 2 2 16.1 25.7 0.05 0.48 0.05 93 1012.8
20260505100217 3 22 19.3 24.1 0.05 0.48 0.05 93 1012.8
20260505095217 3 32 25.7 32.2 0.03 0.48 0.03 93 1012.6
20260505094220 3 28 25.7 37.0 0.03 0.48 0.03 93 1012.4
20260505093218 3 18 22.5 33.8 0.03 0.46 0.03 94 1012.4
20260505092218 3 31 17.7 29.0 0.03 0.46 0.03 94 1012.5
20260505091218 3 27 22.5 30.6 0.00 0.43 0.00 94 1012.3
20260505090218 4 29 19.3 27.4 0.00 0.43 0.00 94 1012.3
20260505085225 4 38 14.5 25.7 0.00 0.43 0.00 95 1012.3
20260505084225 4 24 16.1 22.5 0.00 0.43 0.00 95 1012.3
20260505083226 4 22 12.9 20.9 0.00 0.43 0.00 95 1012.4
20260505082226 5 29 16.1 25.7 0.00 0.43 0.00 94 1012.3
20260505081226 5 30 14.5 25.7 0.00 0.43 0.00 94 1012.4
20260505080226 6 15 11.3 14.5 0.00 0.43 0.00 94 1012.5
20260505075235 7 346 4.8 8.0 0.00 0.43 0.00 93 1012.2
20260505074255 7 336 3.2 4.8 0.00 0.43 0.00 94 1012.2
20260505073236 6 314 1.6 3.2 0.00 0.43 0.00 93 1012.3
20260505072256 7 305 1.6 1.6 0.00 0.43 0.00 93 1012.1
20260505071236 7 277 1.6 1.6 0.00 0.43 0.00 91 1012.1
20260505070236 7 183 3.2 3.2 0.00 0.43 0.00 92 1012.1
20260505065237 7 200 4.8 4.8 0.00 0.43 0.00 91 1012.0
20260505064257 7 197 3.2 3.2 0.00 0.43 0.00 91 1012.2
20260505063317 7 170 4.8 4.8 0.00 0.43 0.00 90 1012.1
20260505062257 7 187 4.8 4.8 0.00 0.43 0.00 90 1012.1
20260505061230 7 179 4.8 6.4 0.00 0.43 0.00 90 1012.1
20260505060221 7 195 6.4 8.0 0.00 0.43 0.00 89 1012.1
20260505055238 7 179 4.8 6.4 0.00 0.43 0.43 90 1012.1
20260505054238 7 211 4.8 6.4 0.00 0.43 0.43 90 1012.2
20260505053225 7 185 6.4 6.4 0.00 0.43 0.43 90 1012.0
20260505052241 6 185 4.8 6.4 0.00 0.43 0.43 91 1012.0
20260505051229 6 196 4.8 6.4 0.00 0.43 0.43 90 1012.2
20260505050238 6 194 3.2 4.8 0.00 0.43 0.43 91 1012.2
20260505041232 6 291 1.6 3.2 0.13 0.43 0.43 92 1012.6
20260505040232 6 233 1.6 3.2 0.18 0.43 0.43 89 1012.6
20260505035223 6 204 4.8 6.4 0.25 0.43 0.43 88 1012.5
20260505034217 6 190 6.4 8.0 0.36 0.43 0.43 91 1012.5
20260505033237 7 209 4.8 4.8 0.38 0.43 0.43 92 1012.7
20260505032217 7 187 3.2 3.2 0.38 0.38 0.38 92 1012.6
20260505031218 7 259 1.6 1.6 0.30 0.33 0.33 91 1012.5
20260505030218 7 271 6.4 8.0 0.25 0.25 0.25 89 1012.5
20260505025218 8 254 8.0 14.5 0.15 0.18 0.18 88 1012.2
20260505024218 8 346 3.2 3.2 0.08 0.08 0.08 87 1011.9
20260505023218 8 333 3.2 6.4 0.03 0.03 0.03 85 1011.6
20260505022218 8 9 3.2 4.8 0.00 0.03 0.03 83 1011.4
20260505021218 8 22 6.4 9.7 0.00 0.03 0.03 81 1011.4
20260505020218 8 12 8.0 11.3 0.00 0.03 0.03 78 1011.3
20260505015218 10 7 4.8 8.0 0.00 0.03 0.03 78 1011.5
20260505014219 11 5 3.2 6.4 0.00 0.03 0.03 69 1011.4
20260505013219 11 320 3.2 3.2 0.00 0.03 0.03 60 1011.0
20260505012219 11 249 4.8 4.8 0.00 0.03 0.03 60 1011.1
20260505011219 12 159 9.7 12.9 0.00 0.03 0.03 58 1011.0
20260505010219 12 176 6.4 12.9 0.00 0.03 0.03 55 1010.9
20260505005219 12 127 4.8 8.0 0.00 0.03 0.03 51 1010.7
20260505004220 12 36 1.6 1.6 0.00 0.03 0.03 51 1010.7
20260505003220 13 8 1.6 1.6 0.00 0.03 0.03 53 1010.6
20260505002220 13 190 3.2 3.2 0.00 0.03 0.03 51 1010.7
20260505001220 13 178 1.6 3.2 0.00 0.03 0.03 53 1010.5
20260505000220 12 182 3.2 3.2 0.00 0.03 0.03 54 1010.5
20260504235221 12 48 3.2 3.2 0.00 0.03 0.03 53 1010.4
20260504234220 12 14 3.2 3.2 0.00 0.03 0.03 54 1010.4
20260504233221 12 253 1.6 3.2 0.00 0.03 0.03 54 1010.3
20260504232226 12 231 1.6 3.2 0.03 0.03 0.03 55 1010.4
20260504231221 12 211 3.2 4.8 0.03 0.03 0.03 56 1010.5
20260504230241 12 267 3.2 3.2 0.03 0.03 0.03 60 1010.4
20260504225242 12 203 4.8 6.4 0.03 0.03 0.03 58 1010.5
20260504224222 12 296 3.2 4.8 0.03 0.03 0.03 57 1010.9
20260504223236 13 325 4.8 6.4 0.00 0.00 0.00 56 1010.8
20260504222242 13 316 3.2 4.8 0.00 0.00 0.00 50 1010.7
20260504221222 13 24 4.8 4.8 0.00 0.00 0.00 49 1010.4
20260504220222 14 35 3.2 4.8 0.00 0.00 0.00 48 1010.2
20260504215222 15 22 3.2 8.0 0.00 0.00 0.00 43 1009.8
20260504214238 15 23 3.2 6.4 0.00 0.00 0.00 40 1009.4
20260504213217 16 11 6.4 11.3 0.00 0.00 0.00 38 1009.1
20260504212217 17 6 6.4 9.7 0.00 0.00 0.00 37 1009.2
20260504211217 18 89 3.2 8.0 0.00 0.00 0.00 33 1008.8
20260504210237 18 168 8.0 12.9 0.00 0.00 0.00 31 1008.7
20260504205217 18 13 3.2 6.4 0.00 0.00 0.00 31 1008.9
20260504204217 18 88 6.4 9.7 0.00 0.00 0.00 33 1009.0
20260504203218 18 177 8.0 11.3 0.00 0.00 0.00 33 1009.2
20260504202218 17 158 6.4 12.9 0.00 0.00 0.00 37 1009.5
20260504201218 16 139 6.4 11.3 0.00 0.00 0.00 37 1009.8
20260504200219 15 166 6.4 9.7 0.00 0.00 0.00 38 1010.1
20260504195218 15 225 6.4 11.3 0.00 0.00 0.00 40 1010.2
20260504194218 15 185 6.4 11.3 0.00 0.00 0.00 40 1010.1
20260504193219 16 205 9.7 14.5 0.00 0.00 0.00 39 1009.9
20260504192219 18 178 8.0 12.9 0.00 0.00 0.00 33 1009.6
20260504191219 18 207 6.4 8.0 0.00 0.00 0.00 26 1009.2
20260504190219 19 311 3.2 6.4 0.00 0.00 0.00 26 1008.8
20260504185220 20 289 3.2 8.0 0.00 0.00 0.00 25 1008.7
20260504184219 21 289 4.8 9.7 0.00 0.00 0.00 25 1008.7
20260504183240 21 292 4.8 9.7 0.00 0.00 0.00 23 1008.8
20260504182220 20 301 4.8 6.4 0.00 0.00 0.00 23 1008.8
20260504181300 20 307 6.4 9.7 0.00 0.00 0.00 25 1009.0
20260504180300 20 352 3.2 6.4 0.00 0.00 0.00 25 1009.1
20260504175217 20 292 6.4 12.9 0.00 0.00 0.00 27 1009.2
20260504174220 19 292 8.0 12.9 0.00 0.00 0.00 28 1009.5
20260504173220 18 299 4.8 9.7 0.00 0.00 0.00 29 1009.7
20260504172220 18 331 6.4 9.7 0.00 0.00 0.00 29 1009.8
20260504171221 18 258 3.2 8.0 0.00 0.00 0.00 29 1009.8
20260504170218 18 295 4.8 11.3 0.00 0.00 0.00 29 1009.9
20260504160228 16 262 4.8 6.4 0.00 0.00 0.00 31 1010.6
20260504150217 15 268 3.2 4.8 0.00 0.00 0.00 31 1010.6
20260504141218 15 305 4.8 8.0 0.00 0.00 0.00 31 1010.9
20260504140218 15 295 4.8 4.8 0.00 0.00 0.00 31 1010.9